LRCV Weather Reports


Display with metric or nautical units.
time (UTC)temp
F
wind
direction
speed
MPH
gust
MPH
rain 1hr
in
rain 24hr
in
rain mn
in
humidity
%
barometer
mb
20260906032000 70 310 7.0 0.0 0.00 0.00 0.00 53 1018.0
20260906030501 70 310 7.0 0.0 0.00 0.00 0.00 53 1018.0
20260906024909 72 300 8.0 0.0 0.00 0.00 0.00 50 1018.0
20260906023342 72 300 8.0 0.0 0.00 0.00 0.00 50 1018.0
20260906021848 72 300 8.0 0.0 0.00 0.00 0.00 53 1017.0
20260906020343 72 300 8.0 0.0 0.00 0.00 0.00 53 1017.0
20260906014843 72 300 7.0 0.0 0.00 0.00 0.00 57 1017.0
20260906013502 72 300 7.0 0.0 0.00 0.00 0.00 57 1017.0
20260906011841 73 300 10.0 0.0 0.00 0.00 0.00 53 1017.0
20260906010341 73 300 10.0 0.0 0.00 0.00 0.00 53 1017.0
20260906005001 73 310 8.0 0.0 0.00 0.00 0.00 53 1017.0
20260906003511 73 310 8.0 0.0 0.00 0.00 0.00 53 1017.0
20260906002002 75 320 8.0 0.0 0.00 0.00 0.00 50 1016.0
20260906000451 75 320 8.0 0.0 0.00 0.00 0.00 50 1016.0
20260905234852 75 320 9.0 0.0 0.00 0.00 0.00 50 1016.0
20260905233341 75 320 9.0 0.0 0.00 0.00 0.00 50 1016.0
20260905232002 75 320 9.0 0.0 0.00 0.00 0.00 50 1016.0
20260905230414 75 320 9.0 0.0 0.00 0.00 0.00 50 1016.0
20260905225002 75 310 10.0 0.0 0.00 0.00 0.00 50 1016.0
20260905223355 75 310 10.0 0.0 0.00 0.00 0.00 50 1016.0
20260905221946 77 300 13.0 0.0 0.00 0.00 0.00 44 1016.0
20260905220501 77 300 13.0 0.0 0.00 0.00 0.00 44 1016.0
20260905215000 77 290 8.0 0.0 0.00 0.00 0.00 42 1016.0
20260905213342 77 290 8.0 0.0 0.00 0.00 0.00 42 1016.0
20260905211841 79 300 9.0 0.0 0.00 0.00 0.00 39 1015.0
20260905210341 79 300 9.0 0.0 0.00 0.00 0.00 39 1015.0
20260905204852 77 250 8.0 0.0 0.00 0.00 0.00 42 1015.0
20260905203341 77 250 8.0 0.0 0.00 0.00 0.00 42 1015.0
20260905201841 77 250 5.0 0.0 0.00 0.00 0.00 42 1015.0
20260905200501 77 250 5.0 0.0 0.00 0.00 0.00 42 1015.0
20260905194954 77 260 7.0 0.0 0.00 0.00 0.00 42 1015.0
20260905193342 77 260 7.0 0.0 0.00 0.00 0.00 42 1015.0
20260905191911 81 260 7.0 0.0 0.00 0.00 0.00 37 1015.0
20260905190342 81 260 7.0 0.0 0.00 0.00 0.00 37 1015.0
20260905184839 82 250 6.0 0.0 0.00 0.00 0.00 35 1015.0
20260905183347 82 250 6.0 0.0 0.00 0.00 0.00 35 1015.0
20260905181838 81 220 3.0 0.0 0.00 0.00 0.00 39 1014.0
20260905180338 81 220 3.0 0.0 0.00 0.00 0.00 39 1014.0
20260905174838 84 190 3.0 0.0 0.00 0.00 0.00 35 1014.0
20260905173341 84 190 3.0 0.0 0.00 0.00 0.00 35 1014.0
20260905171849 86 0 0.0 0.0 0.00 0.00 0.00 33 1014.0
20260905170342 86 0 0.0 0.0 0.00 0.00 0.00 33 1014.0
20260905164841 90 2.0 0.0 0.00 0.00 0.00 29 1014.0
20260905163343 90 2.0 0.0 0.00 0.00 0.00 29 1014.0
20260905161840 91 250 7.0 0.0 0.00 0.00 0.00 26 1014.0
20260905160342 91 250 7.0 0.0 0.00 0.00 0.00 26 1014.0
20260905154855 93 3.0 0.0 0.00 0.00 0.00 24 1014.0
20260905153341 93 3.0 0.0 0.00 0.00 0.00 24 1014.0
20260905151842 93 270 5.0 0.0 0.00 0.00 0.00 23 1014.0
20260905150342 93 270 5.0 0.0 0.00 0.00 0.00 23 1014.0
20260905144835 95 290 8.0 0.0 0.00 0.00 0.00 23 1014.0
20260905143341 95 290 8.0 0.0 0.00 0.00 0.00 23 1014.0
20260905141839 95 270 9.0 0.0 0.00 0.00 0.00 23 1015.0
20260905140338 95 270 9.0 0.0 0.00 0.00 0.00 23 1015.0
20260905134959 93 270 9.0 0.0 0.00 0.00 0.00 24 1015.0
20260905133342 93 270 9.0 0.0 0.00 0.00 0.00 24 1015.0
20260905131844 93 310 7.0 0.0 0.00 0.00 0.00 24 1015.0
20260905130403 93 310 7.0 0.0 0.00 0.00 0.00 24 1015.0
20260905124836 93 280 8.0 0.0 0.00 0.00 0.00 24 1015.0
20260905123342 93 280 8.0 0.0 0.00 0.00 0.00 24 1015.0
20260905121910 93 230 7.0 0.0 0.00 0.00 0.00 24 1016.0
20260905120342 93 230 7.0 0.0 0.00 0.00 0.00 24 1016.0
20260905114842 91 230 7.0 0.0 0.00 0.00 0.00 28 1016.0
20260905113341 91 230 7.0 0.0 0.00 0.00 0.00 28 1016.0
20260905111900 91 270 7.0 0.0 0.00 0.00 0.00 28 1017.0
20260905110341 91 270 7.0 0.0 0.00 0.00 0.00 28 1017.0
20260905104842 90 320 6.0 0.0 0.00 0.00 0.00 29 1017.0
20260905103341 90 320 6.0 0.0 0.00 0.00 0.00 29 1017.0
20260905101841 86 300 7.0 0.0 0.00 0.00 0.00 33 1017.0
20260905100342 86 300 7.0 0.0 0.00 0.00 0.00 33 1017.0
20260905095001 86 300 8.0 0.0 0.00 0.00 0.00 33 1017.0
20260905093341 86 300 8.0 0.0 0.00 0.00 0.00 33 1017.0
20260905091841 82 280 8.0 0.0 0.00 0.00 0.00 37 1017.0
20260905090341 82 280 8.0 0.0 0.00 0.00 0.00 37 1017.0
20260905084841 82 280 8.0 0.0 0.00 0.00 0.00 37 1017.0
20260905083342 82 280 8.0 0.0 0.00 0.00 0.00 37 1017.0
20260905081841 79 250 5.0 0.0 0.00 0.00 0.00 42 1017.0
20260905080342 79 250 5.0 0.0 0.00 0.00 0.00 42 1017.0
20260905074841 77 230 5.0 0.0 0.00 0.00 0.00 44 1017.0
20260905073350 77 230 5.0 0.0 0.00 0.00 0.00 44 1017.0
20260905071842 75 260 5.0 0.0 0.00 0.00 0.00 47 1017.0
20260905070341 75 260 5.0 0.0 0.00 0.00 0.00 47 1017.0
20260905064842 75 260 3.0 0.0 0.00 0.00 0.00 44 1017.0
20260905063342 75 260 3.0 0.0 0.00 0.00 0.00 44 1017.0
20260905061842 68 2.0 0.0 0.00 0.00 0.00 64 1018.0
20260905060342 68 2.0 0.0 0.00 0.00 0.00 64 1018.0
20260905054842 64 280 3.0 0.0 0.00 0.00 0.00 73 1018.0
20260905053342 64 280 3.0 0.0 0.00 0.00 0.00 73 1018.0
20260905051841 63 270 5.0 0.0 0.00 0.00 0.00 73 1017.0
20260905050342 63 270 5.0 0.0 0.00 0.00 0.00 73 1017.0
20260905044842 59 280 3.0 0.0 0.00 0.00 0.00 82 1017.0
20260905043341 59 280 3.0 0.0 0.00 0.00 0.00 82 1017.0
20260905041842 61 310 2.0 0.0 0.00 0.00 0.00 77 1017.0
20260905040341 61 310 2.0 0.0 0.00 0.00 0.00 77 1017.0
20260905034842 59 310 5.0 0.0 0.00 0.00 0.00 77 1017.0
20260905033341 59 310 5.0 0.0 0.00 0.00 0.00 77 1017.0